Portal de Información Aeronáutica de la República Argentina

Bienvenidos


BAiresFlight

Bienvenidos a BAiresFlight, en este sitio encontrarán toda la información relativa al vuelo. Páginas de interés, archivos enviados por usuarios, documentos, normativas, etc. Desde BAiresFlight apuntamos a que este sitio sea un lugar de consulta, de incorporación de conocimientos, vínculos a sitios de interés relacionados con el vuelo, y por sobre todo, privilegiar el rápido y ágil acceso a la información, todo esto, sin dejar de ser un lugar de encuentro para pilotos, escuelas de vuelo, alumnos, aeroclubes, tripulantes de cabina, instructores, etc. donde buscar e intercambiar experiencias y conocimiento. Paulatinamente, iremos incorporando nuevos documentos, como así también renovando y agregando contenido, y por tal motivo, lo invitamos a regresar. Desde ya, muchas gracias por visitarnos, y compartir este sitio con sus colegas y amigos. Los invitamos a conocer BAiresFlight Portal de información aeronáutica de la República Argentina.

Importante:

Este portal, eventualmente puede emitir comunicados a través de ventanas emergentes, por tal motivo se recomienda permitir las mismas, para esto, deberá ir a la parte de configuración de su explorador y buscar la opción “Permitir ventanas emergentes

BAiresFlight

 

Nuestra Revista Digital Gratuita en FlipBoard:

View my Flipboard Magazine.

BAiresFlight en Facebook


Aviación Civil Argentina

BAiresFlight

Available data for SABE from the past 2 hours

METAR
SABE 280400Z 34005KT CAVOK 13/06 Q1017
SABE 280300Z 00000KT CAVOK 15/05 Q1018
TAF
TAF SABE 272300Z 2800/2824 27010KT CAVOK TX22/2818Z TN12/2810Z BECMG 2804/2806 33010KT BECMG 2809/2810 36020KT